#timestamp,LO_Frequency,Hit,StdDev 
1542027615.8,286046998.3,N
1542027635.6,286046999.3,N
1542027655.5,286046999.1,N
1542027675.3,286047001.1,N
1542027695.1,286046998.1,N
1542027715.9,286047001.2,N
1542027735.7,286047000.8,N
1542027755.6,286047001.0,N
1542027775.4,286047001.2,N
1542027795.2,286047000.3,N
1542027815.1,286047002.8,N
1542027816.0,286047002.8,N
1542027835.8,286047001.0,N
1542027855.6,286047000.6,N
1542027875.5,286047001.1,N
1542027925.4,286046999.9,E
1542027935.3,286046999.8,N
1542027955.1,286047002.8,P
1542027975.8,286047001.0,N
1542027995.7,286047000.5,N
1542028015.5,286047000.9,N
1542028035.4,286046999.7,N
1542028055.2,286046999.7,N
1542028075.0,286047002.4,N
1542028075.9,286047002.4,N
1542028095.8,286047000.1,N
1542028115.6,286047000.1,N
1542028135.5,286047000.1,N
1542028155.3,286046998.2,N
1542028175.1,286046999.3,N
1542028195.9,286046998.4,N
1542028215.7,286047000.6,N
1542028235.5,286046998.1,N
1542028255.4,286047001.2,N
1542028275.2,286047000.4,N
1542028295.1,286046999.2,N
1542028296.0,286046999.2,N
1542028315.8,286046995.4,Y
1542028335.6,286046996.8,P
1542028355.5,286046997.4,N
1542028375.3,286046997.0,N
1542028395.1,286046997.1,N
1542028415.9,286046995.1,Y
1542028435.7,286046998.7,P
1542028455.6,286046998.8,N
1542028475.4,286046998.3,P
1542028495.2,286046998.8,N
1542028515.1,286046999.3,N
1542028516.0,286046999.3,N
1542028535.8,286046998.9,N
1542028555.6,286046999.2,N
1542028575.3,286046997.3,Y
1542028595.2,286046999.6,P
1542028615.9,286046998.4,P
1542028635.7,286047001.2,N
1542028655.6,286047000.6,N
1542028675.4,286047000.9,N
1542028695.3,286046998.5,N
1542028715.1,286046998.5,N
1542028716.0,286046998.5,N
1542028735.8,286046998.2,N
1542028755.7,286047000.9,N
1542028775.5,286046998.2,N
1542028795.3,286047000.3,N
1542028815.2,286047001.0,N
1542028835.0,286047001.1,N
1542028835.9,286047001.1,N
1542028855.8,286046998.1,N
1542028875.6,286046999.0,N
1542028895.4,286046998.7,N
1542028915.3,286046999.6,N
1542028935.1,286046996.5,Y
1542028955.9,286046998.0,P
1542028975.7,286046995.5,P
1542028995.5,286046995.3,N
1542029015.4,286046994.9,N
1542029035.2,286046998.0,N
1542029055.0,286046996.2,N
1542029056.0,286046996.2,N
1542029075.8,286046995.9,N
1542029095.6,286046995.7,N
1542029115.5,286046995.9,N
1542029135.3,286046996.4,N
1542029155.1,286046995.9,Y
1542029175.9,286047000.5,P
1542029195.7,286046998.6,N
1542029215.6,286046996.5,N
1542029235.4,286046997.9,N
1542029255.2,286046998.9,N
1542029275.1,286046998.3,N
1542029276.0,286046998.3,N
1542029295.8,286046998.2,N
1542029315.7,286047000.4,N
1542029335.5,286046998.1,N
1542029355.3,286046998.5,N
1542029375.2,286046998.2,N
1542029395.0,286046998.1,N
1542029395.9,286046998.1,N
1542029415.7,286047001.2,N
1542029435.6,286046999.8,N
1542029455.4,286047001.8,N
1542029475.3,286047001.0,N
1542029495.1,286047001.1,N
1542029496.0,286047001.1,N
1542029515.8,286046998.2,N
1542029535.7,286046999.4,N
1542029555.5,286046999.2,N
1542029575.4,286046996.9,N
1542029595.2,286046996.7,N
1542029615.0,286046996.7,N
1542029615.9,286046996.7,N
1542029635.8,286046999.0,N
1542029655.6,286046999.3,N
1542029675.5,286046996.6,N
1542029695.3,286046996.7,N
1542029715.1,286046996.6,N
1542029735.9,286046998.7,N
1542029755.7,286046997.3,N
1542029775.5,286046997.7,N
1542029795.4,286046997.9,N
1542029815.2,286046997.2,N
1542029835.1,286046999.0,N
1542029836.0,286046999.0,N
1542029855.8,286046999.4,N
1542029875.6,286046996.8,N
1542029895.5,286046997.5,N
1542029915.3,286046997.1,N
1542029935.1,286046997.2,N
1542029955.9,286046997.5,N
1542029975.7,286046997.2,N
1542029995.6,286046997.9,N
1542030015.4,286046996.8,N
1542030035.2,286046997.3,N
1542030055.1,286046997.3,N
1542030056.0,286046997.3,N
1542030075.8,286046996.8,Y
1542030095.6,286047000.0,P
1542030115.5,286047000.1,N
1542030135.3,286047000.2,N
1542030155.2,286047000.4,N
1542030175.9,286047000.1,N
1542030195.2,286047000.2,N
1542030215.1,286047000.4,N
1542030216.0,286047000.4,N
1542030235.8,286047000.7,N
1542030255.6,286047000.4,N
1542030275.5,286047002.7,Y
1542030295.3,286047002.2,P
1542030315.2,286047002.3,N
1542030335.9,286047001.7,N
1542030355.7,286047001.6,N
1542030375.6,286047003.7,Y
1542030395.4,286047000.3,P
1542030415.3,286046999.7,N
1542030435.1,286046998.1,N
1542030436.0,286046998.1,N
1542030455.8,286047000.0,N
1542030475.7,286047002.8,N
1542030495.5,286046999.8,N
1542030515.3,286047000.9,N
1542030535.2,286047000.3,N
1542030555.0,286046998.5,N
1542030555.9,286046998.5,N
1542030575.8,286046998.1,N
1542030595.6,286047000.8,N
1542030615.4,286047000.3,N
1542030635.3,286047002.7,N
1542030655.1,286047002.8,N
1542030675.5,286047000.5,N
1542030695.3,286047002.7,N
1542030715.2,286047000.0,N
1542030735.0,286047002.6,N
1542030735.9,286047002.6,N
1542030755.8,286047000.1,N
1542030775.6,286047000.5,N
1542030795.4,286047000.5,N
1542030815.3,286047000.5,N
1542030835.1,286047000.3,N
1542030855.8,286047000.7,N
1542030875.7,286047000.6,N
1542030895.5,286047000.3,N
1542030915.4,286047001.8,N
1542030935.2,286047001.4,N
1542030955.0,286047004.4,Y
1542030955.9,286047004.4,P
1542030975.8,286047001.5,N
1542030995.6,286047001.5,N
1542031015.5,286047001.6,N
1542031035.3,286047003.9,N
1542031055.1,286047001.4,N
1542031075.9,286047004.3,Y
1542031095.1,286047000.1,P
1542031096.0,286047000.1,N
1542031115.8,286047000.7,N
1542031135.6,286046998.1,N
1542031155.5,286046998.1,N
1542031175.3,286047000.0,N
1542031195.2,286047004.8,Y
